Theta_e
332 335 335 328 315 314 307 308 313 311 312 318 319 316 316 319 315 311 337 341 341 341 344 344 345 342 342 343 344 343 342 341 341 341 338 337 336 337 340 338 339 337 336 336 340 337 336 335 335
325 327 328 323 311 306 307 312 310 313 318 319 318 316 314 313 324 330 335 340 341 340 342 342 343 342 341 342 341 341 340 340 342 340 338 336 337 337 338 340 337 336 335 335 337 337 335 334 334
323 327 321 314 310 306 307 312 314 317 319 317 316 320 317 316 327 332 341 341 341 339 343 342 343 342 340 340 340 339 339 341 342 340 338 336 336 338 336 335 335 333 332 336 336 337 335 334 334
322 325 322 310 306 311 312 314 315 315 317 320 318 314 323 329 328 334 342 341 340 340 342 341 344 342 340 339 339 339 339 339 338 338 337 337 336 336 335 334 333 333 331 332 339 339 336 336 335
323 322 312 308 308 312 316 317 317 314 316 317 317 313 319 329 335 338 340 340 339 340 342 343 344 344 342 340 339 339 339 339 338 337 336 336 337 337 335 334 332 333 332 330 330 330 329 329 329
315 319 309 306 308 313 316 318 317 315 316 316 314 315 320 331 333 336 340 340 340 339 341 343 339 341 343 343 341 339 338 336 336 337 337 337 338 338 336 333 332 331 331 331 330 329 328 328 328
311 311 308 309 309 311 314 319 316 315 315 315 317 311 322 328 334 338 339 339 339 341 341 341 341 340 336 340 340 341 340 338 335 336 338 339 337 337 336 336 335 334 332 332 332 331 330 330 330
313 312 307 309 308 309 316 318 319 316 315 324 320 311 315 327 335 337 338 339 339 341 341 341 342 341 341 341 335 336 337 337 337 337 335 332 334 334 333 331 334 335 336 335 336 334 334 333 333
311 304 302 307 308 311 317 315 319 321 319 320 320 318 322 331 334 334 334 335 336 338 340 340 340 341 340 340 337 332 332 333 332 331 330 329 334 334 332 329 330 330 332 333 333 335 336 335 333
306 302 303 311 313 312 315 316 316 315 317 317 318 323 327 331 332 331 331 332 334 335 337 339 340 340 340 338 341 340 339 338 337 337 336 335 334 334 331 326 326 328 329 330 332 333 332 330 332
305 301 304 307 312 314 314 314 317 314 313 317 316 320 325 328 330 330 330 331 332 333 336 338 339 340 340 339 340 340 339 340 338 338 337 336 335 335 334 333 332 333 322 331 330 332 330 332 330
301 302 305 309 311 311 311 315 312 314 315 319 321 323 325 325 326 327 327 328 329 331 333 337 338 339 340 340 340 338 338 340 339 339 339 337 337 337 333 331 334 334 333 332 334 332 331 330 331
302 303 306 309 309 309 310 310 311 312 318 316 319 322 324 324 325 327 328 328 329 329 332 335 338 338 339 340 339 338 338 339 340 340 339 337 335 335 335 335 333 333 333 332 332 331 330 330 329
305 306 306 308 308 308 307 308 308 312 317 316 315 318 323 324 325 326 326 326 328 329 331 330 331 336 336 337 338 338 338 338 339 339 340 336 336 335 335 334 334 333 333 333 333 332 331 331 331
305 301 303 305 307 306 307 302 304 310 312 312 315 317 320 324 326 325 328 327 328 330 326 324 325 325 327 330 334 336 337 337 337 336 338 337 337 336 336 336 336 337 337 336 335 334 333 333 333
300 300 296 302 305 305 304 296 304 310 310 310 313 316 319 322 325 327 328 327 324 323 321 319 317 320 321 323 327 327 331 335 334 328 326 323 324 327 330 334 335 336 337 335 333 332 330 331 329
298 294 295 296 303 303 302 298 302 305 306 308 311 314 318 322 325 326 320 319 318 319 318 316 316 316 317 320 325 327 327 327 327 326 321 318 318 320 324 326 327 330 332 333 332 331 330 328 329
295 293 294 295 298 301 299 299 301 302 304 306 309 312 315 319 318 319 315 314 313 314 314 313 313 314 316 322 324 325 323 321 320 318 316 315 315 316 320 322 325 327 327 326 324 325 326 326 324
294 296 295 296 297 295 297 297 299 302 303 302 305 308 311 313 318 314 311 310 310 311 311 311 311 312 316 319 322 322 321 319 315 311 307 308 309 312 315 318 318 319 320 317 316 316 318 320 322
294 293 293 294 298 296 295 294 298 299 299 301 302 304 307 310 313 309 308 308 309 308 308 308 308 310 312 318 320 321 318 314 310 306 304 305 307 308 309 310 311 312 313 314 313 313 314 318 317
292 291 291 290 295 297 294 291 293 298 300 302 303 304 304 306 309 308 307 307 307 306 307 306 306 308 311 315 318 316 314 312 310 307 304 302 304 304 305 306 307 307 307 307 306 306 308 309 314
289 295 293 291 289 285 294 285 293 296 296 297 300 302 304 305 307 309 307 306 305 304 304 304 304 306 308 313 317 316 316 313 307 304 302 301 301 302 302 303 303 303 303 302 302 303 304 307 305
291 296 294 293 291 290 289 286 290 295 293 296 299 300 301 303 305 307 306 304 302 301 301 301 302 303 306 309 314 314 310 307 304 303 301 301 300 299 299 300 300 300 301 301 300 301 301 301 301
298 295 294 293 291 283 287 287 288 291 292 295 298 300 300 301 302 306 304 301 299 298 300 300 300 300 303 305 308 310 307 305 303 302 301 300 299 298 297 298 299 299 298 298 298 299 298 299 298
295 290 284 282 282 280 287 286 289 293 294 295 297 299 300 300 301 301 298 298 298 298 299 299 299 297 300 301 302 303 303 304 302 300 299 297 296 295 294 295 296 296 296 296 297 296 295 295 294
291 289 285 277 279 283 286 282 288 295 296 297 297 299 299 300 300 299 299 299 299 299 298 297 297 295 296 296 296 298 298 298 296 295 295 294 294 293 294 294 294 294 294 294 294 294 293 293 292
290 286 291 284 282 282 286 289 293 295 295 295 296 297 298 298 299 299 299 299 298 297 297 296 295 294 294 294 294 294 294 294 292 293 293 293 293 291 292 292 292 292 292 292 292 291 291 290 290
293 294 284 287 279 278 283 284 286 291 293 295 295 297 298 298 298 298 298 298 298 298 297 296 295 293 293 292 292 292 292 292 292 292 292 291 291 290 290 290 290 290 291 291 291 289 289 288 288
290 288 290 289 286 281 280 284 293 293 294 295 297 298 298 298 298 297 298 298 297 297 296 295 294 293 292 292 292 291 291 291 291 291 291 290 290 289 289 289 289 289 288 289 288 287 287 286 285
293 290 290 284 283 285 283 285 293 295 295 296 298 299 300 299 299 298 298 297 297 296 295 295 294 294 293 292 291 291 290 290 289 289 289 289 288 288 288 288 287 287 287 287 286 284 285 284 283
Wind_Speed
9 8 6 6 7 5 5 5 7 7 6 4 6 4 9 10 9 6 10 7 15 13 14 12 10 10 9 9 10 9 8 8 9 9 9 9 9 8 8 8 12 11 9 8 9 10 11 11 12
7 6 6 5 7 8 7 9 8 7 9 8 5 3 2 10 8 12 10 9 13 12 11 11 10 10 10 9 9 8 7 5 8 9 8 9 9 7 7 11 10 9 7 7 6 8 9 9 10
10 9 6 5 8 1 7 8 11 10 10 7 4 4 2 6 10 9 14 13 12 11 12 13 11 10 9 9 8 8 7 7 11 8 7 8 8 9 8 9 9 8 7 6 3 7 7 7 7
6 6 5 8 8 7 6 10 14 13 6 2 2 7 7 8 7 7 13 13 12 10 11 12 9 9 8 8 8 8 7 7 6 5 5 4 5 7 7 7 7 7 7 6 9 8 5 6 6
6 5 7 10 5 5 3 13 14 12 10 9 4 7 7 6 9 13 13 12 11 10 11 11 8 8 7 7 6 6 5 5 4 3 2 1 2 6 6 5 5 5 5 5 6 5 5 5 4
5 5 6 9 8 7 8 10 12 7 8 9 5 10 8 9 10 13 13 12 11 10 10 11 8 7 8 6 6 5 4 3 2 1 2 2 5 6 5 3 2 2 2 2 3 3 3 3 3
6 6 9 7 11 8 10 10 11 8 8 7 6 7 8 10 11 12 12 12 12 11 9 8 8 7 4 4 4 4 2 2 2 2 3 6 5 4 3 1 1 2 2 2 2 1 2 3 3
4 4 3 5 10 7 11 12 9 7 8 5 2 5 10 12 14 12 12 12 11 11 9 8 9 8 8 8 7 5 3 2 1 2 2 2 1 1 2 3 3 3 3 4 5 4 5 5 5
3 5 7 6 8 10 11 11 6 4 6 4 6 4 8 17 15 12 10 10 9 9 9 9 8 8 8 7 8 6 4 3 3 5 4 4 6 5 5 4 1 4 5 5 5 6 6 6 10
4 5 4 6 5 6 12 10 11 7 8 7 8 6 11 17 15 14 12 10 10 10 9 8 8 7 6 5 7 6 7 6 6 5 7 5 3 2 4 1 3 5 7 7 7 7 6 7 5
1 2 4 3 5 2 9 7 8 8 11 9 11 12 16 16 15 14 12 11 10 10 8 8 7 7 6 5 4 4 2 2 3 3 2 2 1 3 3 1 2 4 7 5 7 6 4 5 5
4 2 3 3 3 1 5 4 6 10 3 5 3 15 16 17 15 14 13 11 10 10 9 9 7 6 6 4 4 3 3 3 3 4 5 2 1 1 3 2 3 2 3 3 2 1 4 6 7
4 4 3 4 2 2 2 4 7 9 10 3 2 9 15 15 14 12 11 10 10 10 9 7 6 6 5 6 4 4 3 4 4 3 4 3 2 4 3 4 4 5 5 5 5 6 6 5 8
3 4 4 2 3 2 2 3 1 6 9 8 7 11 13 15 15 13 12 11 10 10 9 6 5 4 4 5 5 4 4 4 3 4 2 4 4 4 5 6 6 6 5 6 4 6 6 7 7
5 5 4 5 4 1 2 8 10 7 2 10 11 10 12 14 14 15 13 11 11 7 6 5 5 4 3 3 3 3 3 3 3 3 2 4 4 7 8 7 6 6 6 6 5 7 6 6 6
5 3 6 7 6 4 4 10 0 5 5 9 11 11 11 13 15 13 13 9 4 7 7 5 3 3 3 3 1 2 2 1 4 5 5 7 7 8 7 5 6 7 6 6 5 5 5 5 5
5 6 11 7 6 4 10 7 5 2 4 9 10 10 10 12 13 11 6 5 4 5 6 5 4 4 3 3 3 4 4 3 3 3 4 5 6 6 4 4 4 6 5 5 5 6 4 6 5
8 7 2 9 6 8 10 14 4 3 5 9 10 10 10 12 13 11 8 6 5 5 5 5 3 3 3 2 2 2 3 4 4 5 5 7 6 7 5 3 3 5 4 5 6 6 5 3 4
6 9 10 3 4 3 11 14 13 10 11 12 11 12 11 12 11 10 6 5 6 5 5 4 4 3 1 2 2 1 0 3 4 5 7 7 7 6 6 4 5 6 5 6 6 5 5 5 4
8 8 9 4 0 3 8 14 16 15 17 16 16 15 14 13 12 9 8 8 8 7 5 5 4 3 3 2 2 1 3 4 5 4 6 7 7 8 6 7 6 7 5 6 7 7 6 4 5
9 10 7 4 1 6 8 14 19 11 13 14 13 13 15 15 15 12 11 9 8 7 6 5 4 4 3 2 4 4 5 4 4 4 4 6 7 7 7 8 7 7 6 5 6 7 7 4 3
11 8 3 3 3 5 2 6 5 6 6 8 9 10 13 13 10 12 12 9 8 6 5 5 4 4 3 1 3 4 2 4 3 4 4 4 7 8 8 8 7 7 5 6 5 6 5 5 4
2 8 7 4 4 4 9 6 6 1 9 9 5 1 3 2 7 10 12 10 8 6 6 5 5 5 4 3 2 3 5 5 4 3 4 4 5 8 8 8 7 7 5 6 7 7 7 5 5
12 13 8 3 2 6 11 8 6 7 4 6 5 2 1 3 4 5 9 9 7 6 6 5 6 5 5 5 4 4 6 5 4 3 2 3 4 5 8 7 7 7 7 7 6 7 8 6 6
8 12 4 3 4 6 3 6 9 3 3 2 5 4 1 2 5 9 10 10 9 9 7 6 6 6 6 6 6 6 5 5 5 4 4 3 4 4 6 7 7 6 6 7 7 7 8 8 6
13 5 3 7 6 3 4 8 4 4 3 1 3 1 3 5 6 9 10 9 8 8 7 7 6 7 6 6 6 5 5 5 5 5 4 4 4 4 5 5 6 7 7 6 7 6 6 7 7
8 7 4 4 2 2 7 7 11 5 3 3 3 4 5 6 7 9 9 9 9 8 7 7 7 7 6 6 5 6 5 5 6 5 4 4 4 4 5 5 6 6 6 6 6 5 6 6 6
5 12 4 3 5 6 6 6 7 4 5 5 6 7 7 7 8 9 9 9 8 8 7 7 7 7 6 5 5 4 5 5 5 5 5 4 4 4 4 5 5 5 5 5 6 5 6 6 5
6 6 6 5 3 3 3 4 3 5 4 5 7 8 9 9 8 8 8 8 8 8 8 8 7 7 7 6 6 5 5 5 4 4 4 4 4 3 4 4 4 4 5 5 6 6 7 7 7
13 9 11 4 6 4 3 5 5 5 4 4 6 9 8 9 10 9 9 9 10 9 9 9 9 8 7 6 5 5 5 4 4 4 4 4 4 3 4 4 4 4 5 4 5 6 6 7 7
Wind_Direction
264 194 217 237 232 247 125 129 105 124 141 72 64 340 37 25 4 44 125 118 123 128 128 141 124 129 130 121 115 113 111 112 111 99 87 80 82 84 83 74 70 61 57 59 81 85 78 73 69
275 194 231 261 253 213 120 126 155 131 88 121 113 143 112 78 70 115 127 135 132 131 146 135 131 135 136 134 130 124 115 117 128 114 100 92 88 84 76 81 70 59 50 49 78 92 82 75 70
244 232 244 222 251 280 128 161 116 109 129 142 119 336 28 86 115 114 107 137 136 135 130 124 135 141 141 143 138 130 121 93 128 120 116 112 105 84 81 72 66 61 61 52 81 113 100 86 74
231 199 236 247 194 71 107 145 130 134 135 150 120 108 98 38 118 97 131 139 141 137 125 127 137 144 148 149 143 137 129 119 126 135 134 140 128 110 93 76 75 70 60 56 56 90 100 87 71
228 253 228 230 128 108 124 128 149 159 145 148 186 131 95 108 112 131 137 146 140 139 117 146 150 154 160 159 152 149 143 133 129 125 135 352 150 148 112 100 91 86 74 68 58 57 53 45 47
223 272 228 198 159 130 139 140 158 145 134 117 181 133 106 121 145 141 144 146 142 138 140 134 157 170 163 172 164 159 155 150 164 159 305 244 40 133 119 113 107 99 101 80 69 63 50 33 24
266 233 253 212 148 158 149 162 168 147 147 151 113 138 112 152 141 147 150 142 149 140 148 144 165 163 163 177 173 165 164 152 142 164 22 80 75 77 79 42 290 273 244 270 276 301 324 328 333
282 260 243 225 165 157 147 161 172 166 114 94 183 161 164 149 149 154 151 152 153 151 157 162 154 177 177 168 176 182 178 170 161 159 110 88 128 161 186 242 220 303 317 309 291 271 274 285 292
299 233 212 187 198 129 154 157 181 57 128 176 158 10 100 139 153 157 160 161 158 160 167 166 164 173 179 178 159 173 187 190 195 191 188 209 243 195 182 104 42 299 301 299 301 301 294 281 265
270 254 203 37 45 158 175 180 162 177 168 182 166 112 147 153 164 170 178 176 175 173 175 170 171 172 177 173 160 200 169 197 198 198 178 218 273 299 328 333 224 262 260 266 256 263 276 268 294
116 254 105 106 69 358 164 206 164 208 192 194 191 155 156 167 175 181 186 183 186 175 169 181 177 177 184 172 184 176 191 197 206 197 175 214 288 203 198 334 203 246 200 254 195 189 229 247 267
205 87 42 94 55 89 169 205 209 230 146 354 121 155 170 180 186 187 187 180 180 174 170 179 186 185 194 204 197 204 196 192 207 190 199 207 229 276 244 243 233 242 271 278 288 237 241 254 265
213 148 104 92 80 37 15 218 242 228 243 85 154 175 183 189 191 195 190 179 172 176 173 176 190 204 204 206 235 234 233 205 229 227 195 179 243 259 268 281 231 225 234 245 244 243 244 244 255
103 160 139 147 124 69 271 215 274 216 223 203 192 205 201 199 195 191 192 184 184 182 168 161 192 212 248 235 233 246 239 245 240 249 207 220 252 264 252 265 264 260 268 259 263 272 261 259 258
140 154 181 194 179 133 286 246 226 246 208 234 212 218 214 209 198 197 191 198 190 179 142 159 142 150 166 200 233 238 241 276 256 14 348 295 279 268 277 273 292 289 296 278 273 270 267 272 277
187 234 209 129 186 132 218 251 284 136 232 237 233 223 209 207 204 199 197 201 173 160 166 134 136 122 102 83 97 101 60 354 61 47 32 22 8 358 340 336 327 325 312 286 287 291 298 293 278
200 239 214 157 215 149 207 258 80 2 254 251 241 235 210 205 201 183 173 177 167 150 139 122 94 74 62 72 83 82 87 89 78 81 60 28 24 8 353 353 352 312 337 338 335 328 323 312 322
208 227 193 237 146 216 209 249 197 169 256 249 251 240 222 218 203 189 177 143 128 118 111 112 103 84 98 133 122 122 102 72 53 40 34 26 22 11 6 356 331 340 343 6 0 343 337 328 316
288 213 238 120 72 270 241 255 258 256 231 244 243 243 228 227 211 146 164 144 137 134 135 130 127 77 108 151 171 195 133 93 70 62 43 37 30 14 15 11 9 1 18 10 0 346 327 312 350
207 210 225 72 97 265 284 273 271 249 240 236 238 236 230 219 204 167 173 165 172 145 138 126 115 86 87 142 114 59 103 60 77 81 59 38 43 30 28 19 18 14 353 10 4 356 333 312 23
207 217 202 288 163 230 290 271 253 233 252 241 236 247 245 229 214 190 191 185 163 156 144 128 109 103 87 145 125 104 106 122 137 101 75 41 41 39 31 28 23 18 13 17 11 4 4 345 40
205 209 234 202 258 267 339 287 187 189 208 200 215 229 238 243 243 197 178 183 173 136 110 96 78 75 64 215 169 176 167 134 78 86 75 66 38 38 31 29 27 28 26 29 17 16 6 349 20
147 148 177 181 236 330 209 253 237 98 241 207 162 110 222 301 281 219 163 169 145 145 124 112 100 82 70 73 97 130 97 104 112 108 99 75 62 42 31 27 27 30 31 35 31 25 25 30 31
134 121 105 122 233 245 224 222 251 203 241 145 169 91 198 217 220 176 138 140 146 137 140 134 128 102 86 86 84 105 122 129 130 124 96 59 50 43 31 29 31 30 27 32 34 35 36 32 41
170 159 110 203 212 240 103 222 273 145 172 268 309 307 117 163 162 148 159 170 162 158 149 145 134 110 99 94 89 92 98 94 90 69 57 53 56 45 36 29 34 34 33 39 46 46 47 39 44
186 191 184 208 201 165 139 230 237 91 111 338 334 3 135 154 149 165 168 163 161 152 156 153 136 118 109 104 98 87 82 83 83 70 76 64 61 53 40 44 45 42 38 42 46 50 49 47 46
171 200 43 95 38 267 197 231 273 177 163 177 170 180 166 156 158 162 163 167 162 162 163 160 147 133 131 123 112 98 89 88 94 90 85 83 79 80 66 60 60 54 54 50 58 62 65 61 59
212 143 140 217 202 233 194 252 247 191 172 160 175 187 167 162 162 164 169 170 166 165 165 164 161 155 140 127 119 117 118 108 106 105 98 96 97 86 83 78 74 72 70 70 79 77 69 74 61
160 183 215 182 277 259 270 219 85 153 163 176 185 184 174 173 173 173 174 172 174 174 175 179 174 163 165 163 146 139 124 112 105 105 106 100 101 97 89 86 87 87 89 86 93 97 95 94 88
227 227 194 217 185 244 333 259 156 150 172 197 185 180 176 174 180 182 180 179 183 187 187 190 186 182 173 160 144 126 122 127 135 129 123 131 128 117 111 103 96 92 92 88 97 99 99 100 97